FW5186 Weather Reports


Display with metric or nautical units.
time (UTC)temp
F
wind
direction
speed
MPH
gust
MPH
rain 1hr
in
rain 24hr
in
rain mn
in
humidity
%
barometer
mb
20260505211507 48 360 2.0 9.0 0.00 0.32 0.32 69 1006.3
20260505210100 49 360 7.0 17.0 0.00 0.32 0.32 67 1006.7
20260505204558 50 360 3.0 24.0 0.00 0.32 0.32 67 1006.5
20260505203120 50 360 4.0 10.0 0.00 0.32 0.32 70 1006.3
20260505201601 50 360 5.0 13.0 0.04 0.32 0.32 76 1006.3
20260505200054 47 360 1.0 9.0 0.04 0.32 0.32 81 1006.5
20260505194549 44 360 3.0 8.0 0.04 0.32 0.32 90 1006.7
20260505193047 42 360 3.0 12.0 0.04 0.32 0.32 84 1007.3
20260505191645 46 360 6.0 14.0 0.00 0.28 0.28 71 1007.6
20260505190044 47 360 5.0 15.0 0.00 0.28 0.28 78 1006.4
20260505184542 48 360 3.0 14.0 0.00 0.28 0.28 73 1006.5
20260505183042 47 360 3.0 16.0 0.00 0.28 0.28 78 1006.6
20260505181548 48 360 7.0 16.0 0.00 0.28 0.28 77 1006.6
20260505180039 48 360 2.0 13.0 0.00 0.28 0.28 83 1006.4
20260505174541 47 360 4.0 9.0 0.01 0.28 0.28 86 1006.1
20260505173033 45 360 3.0 10.0 0.04 0.28 0.28 87 1006.3
20260505171533 44 360 1.0 4.0 0.11 0.28 0.28 89 1006.2
20260505170038 43 360 2.0 6.0 0.13 0.28 0.28 90 1006.1
20260505164532 40 360 2.0 10.0 0.13 0.27 0.27 88 1006.2
20260505163034 41 360 2.0 8.0 0.09 0.23 0.23 86 1006.4
20260505161529 43 360 0.0 5.0 0.03 0.17 0.17 87 1005.9
20260505153026 44 360 4.0 9.0 0.01 0.14 0.14 86 1005.7
20260505151524 43 360 2.0 6.0 0.03 0.14 0.14 90 1005.9
20260505124513 40 360 0.0 0.0 0.03 0.06 0.06 90 1004.7
20260505123011 40 360 0.0 3.0 0.03 0.05 0.05 89 1004.9
20260505121513 40 360 1.0 3.0 0.04 0.05 0.05 88 1005.0
20260505120006 40 360 0.0 8.0 0.03 0.04 0.04 88 1005.2
20260505114504 41 360 1.0 4.0 0.03 0.03 0.03 87 1005.5
20260505113007 41 360 1.0 8.0 0.02 0.02 0.02 87 1005.7
20260505111501 41 360 2.0 9.0 0.01 0.01 0.01 87 1005.6
20260505101557 43 360 5.0 15.0 0.00 0.00 0.00 80 1005.6
20260505100057 43 360 4.0 16.0 0.00 0.00 0.00 81 1005.8
20260505094550 43 360 4.0 16.0 0.00 0.00 0.00 81 1005.9
20260505093049 43 360 4.0 14.0 0.00 0.00 0.00 81 1005.7
20260505091547 43 360 7.0 20.0 0.00 0.00 0.00 81 1005.8
20260505090057 43 360 4.0 19.0 0.00 0.00 0.00 81 1006.0
20260505084548 43 360 7.0 14.0 0.00 0.00 0.00 81 1006.1
20260505083040 43 360 5.0 14.0 0.00 0.00 0.00 80 1006.4
20260505081543 43 360 4.0 17.0 0.00 0.00 0.00 81 1006.5
20260505080037 44 360 4.0 14.0 0.00 0.00 0.00 78 1006.7
20260505074532 44 360 5.0 18.0 0.00 0.00 0.00 77 1006.6
20260505073037 44 360 4.0 13.0 0.00 0.00 0.00 77 1006.7
20260505071527 45 360 2.0 5.0 0.00 0.00 0.00 75 1007.0
20260505070024 45 360 2.0 9.0 0.00 0.00 0.00 75 1007.2
20260505064525 45 360 2.0 4.0 0.00 0.00 0.00 74 1007.4
20260505063024 45 360 3.0 11.0 0.00 0.00 0.00 73 1007.2
20260505061522 45 360 6.0 16.0 0.00 0.00 0.00 73 1007.2
20260505060029 45 360 6.0 14.0 0.00 0.00 0.00 72 1007.3
20260505054531 45 360 3.0 20.0 0.00 0.00 0.00 71 1006.6
20260505053017 45 360 5.0 18.0 0.00 0.00 0.00 69 1007.1
20260505051514 46 360 6.0 16.0 0.00 0.00 0.00 67 1007.0
20260505041509 46 360 3.0 16.0 0.00 0.00 0.00 65 1007.8
20260505040008 46 360 5.0 18.0 0.00 0.00 0.00 64 1007.7
20260505034506 46 360 4.0 13.0 0.00 0.00 0.00 63 1007.6
20260505033013 46 360 5.0 16.0 0.00 0.00 0.00 63 1007.5
20260505031504 46 360 4.0 10.0 0.00 0.00 0.00 63 1007.5
20260505030003 46 360 1.0 10.0 0.00 0.00 0.00 62 1007.2
20260505024504 46 360 5.0 12.0 0.00 0.00 0.00 62 1007.2
20260505023108 47 360 2.0 16.0 0.00 0.00 0.00 61 1006.6
20260505021600 47 360 7.0 18.0 0.00 0.00 0.00 61 1006.1
20260505020057 47 360 7.0 20.0 0.00 0.00 0.00 60 1005.9
20260505014555 48 360 4.0 15.0 0.00 0.00 0.00 57 1005.9
20260505013053 49 360 8.0 21.0 0.00 0.00 0.00 54 1005.4
20260505011559 50 360 7.0 22.0 0.00 0.00 0.00 52 1005.8
20260505010054 50 360 8.0 21.0 0.00 0.00 0.00 50 1005.7
20260505004554 51 360 9.0 19.0 0.00 0.00 0.00 49 1006.1
20260505003049 52 360 7.0 17.0 0.00 0.00 0.00 46 1006.7
20260505001549 52 360 6.0 15.0 0.00 0.00 0.00 45 1006.9
20260505000050 53 360 7.0 15.0 0.00 0.00 0.00 43 1007.1
20260504234614 54 360 3.0 12.0 0.00 0.00 0.00 42 1007.1
20260504233149 55 360 6.0 19.0 0.00 0.00 0.00 38 1007.3
20260504231554 57 360 7.0 21.0 0.00 0.00 0.00 33 1007.0
20260504230045 58 360 4.0 16.0 0.00 0.00 0.00 31 1006.8
20260504224544 59 360 8.0 25.0 0.00 0.00 0.00 27 1006.5
20260504223043 60 360 5.0 16.0 0.00 0.00 0.00 27 1006.2
20260504221547 61 360 5.0 19.0 0.00 0.00 0.00 25 1006.2
20260504220041 61 360 5.0 22.0 0.00 0.00 0.00 24 1006.5
20260504214541 62 360 8.0 16.0 0.00 0.00 0.00 20 1006.6
20260504213037 62 360 4.0 15.0 0.00 0.00 0.00 20 1006.7